When you browse on this site, cookies collect data to enhance your experience and personalize the content and advertising you see.
Visit our Privacy Policy to learn more. By continuing to use the site, you agree to this use of cookies and data.
  • In Sweden
  • List of Countries
  • For 7 days
  • Water Temperature
  • Weather Map
  • Weather Widgets
  • user-avatar
    Login

    Hourly Weather Hermosillo

    Today, 19 February, Wednesday

    Time Temperature Precipitation Wind Pressure Humidity
    00:00 +19°C° 0 mm 0 mps 741 mmHg 34%
    01:00 +21°C° 0 mm 1 mps 741 mmHg 33%
    02:00 +21°C° 0 mm 1 mps 741 mmHg 33%
    03:00 +20°C° 0 mm 1 mps 741 mmHg 34%
    04:00 +18°C° 0 mm 0 mps 741 mmHg 36%
    05:00 +18°C° 0 mm 0 mps 741 mmHg 37%
    06:00 +18°C° 0 mm 0 mps 741 mmHg 37%
    07:00 +19°C° 0 mm 0 mps 741 mmHg 37%
    08:00 +19°C° 0 mm 0 mps 742 mmHg 37%
    09:00 +21°C° 0 mm 0 mps 742 mmHg 32%
    10:00 +25°C° 0 mm 1 mps 743 mmHg 26%
    11:00 +27°C° 0 mm 1 mps 743 mmHg 21%
    12:00 +28°C° 0 mm 2 mps 742 mmHg 20%
    13:00 +29°C° 0 mm 3 mps 742 mmHg 18%
    14:00 +30°C° 0 mm 3 mps 742 mmHg 16%
    15:00 +30°C° 0 mm 3 mps 741 mmHg 16%
    16:00 +30°C° 0 mm 3 mps 741 mmHg 15%
    17:00 +30°C° 0 mm 3 mps 741 mmHg 14%
    18:00 +28°C° 0 mm 3 mps 741 mmHg 17%
    19:00 +26°C° 0 mm 3 mps 741 mmHg 20%
    20:00 +24°C° 0 mm 3 mps 742 mmHg 23%
    21:00 +23°C° 0 mm 2 mps 742 mmHg 27%
    22:00 +21°C° 0 mm 2 mps 743 mmHg 30%
    23:00 +21°C° 0 mm 1 mps 743 mmHg 33%

    Tomorrow, 20 February, Thursday

    Time Temperature Precipitation Wind Pressure Humidity
    00:00 +21°C° 0 mm 1 mps 743 mmHg 34%
    01:00 +18°C° 0 mm 0 mps 742 mmHg 35%
    02:00 +17°C° 0 mm 0 mps 742 mmHg 36%
    03:00 +17°C° 0 mm 0 mps 742 mmHg 37%
    04:00 +16°C° 0 mm 0 mps 742 mmHg 38%
    05:00 +16°C° 0 mm 0 mps 742 mmHg 38%
    06:00 +17°C° 0 mm 0 mps 743 mmHg 38%
    07:00 +18°C° 0 mm 0 mps 743 mmHg 38%
    08:00 +18°C° 0 mm 0 mps 743 mmHg 37%
    09:00 +21°C° 0 mm 0 mps 744 mmHg 31%
    10:00 +23°C° 0 mm 0 mps 744 mmHg 25%
    11:00 +25°C° 0 mm 0 mps 744 mmHg 19%
    12:00 +29°C° 0 mm 1 mps 744 mmHg 17%
    13:00 +30°C° 0 mm 1 mps 743 mmHg 15%
    14:00 +31°C° 0 mm 1 mps 743 mmHg 13%
    15:00 +31°C° 0 mm 2 mps 743 mmHg 13%
    16:00 +31°C° 0 mm 2 mps 742 mmHg 13%
    17:00 +31°C° 0 mm 2 mps 742 mmHg 13%
    18:00 +29°C° 0 mm 3 mps 742 mmHg 17%
    19:00 +27°C° 0 mm 3 mps 743 mmHg 21%
    20:00 +25°C° 0 mm 3 mps 743 mmHg 25%
    21:00 +24°C° 0 mm 2 mps 743 mmHg 29%
    22:00 +23°C° 0 mm 2 mps 743 mmHg 32%
    23:00 +22°C° 0 mm 1 mps 743 mmHg 36%

    Day after tomorrow, 21 February, Friday

    Time Temperature Precipitation Wind Pressure Humidity
    06:00 +21°C° 0 mm 1 mps 742 mmHg 37%
    07:00 +22°C° 0 mm 1 mps 742 mmHg 35%
    08:00 +23°C° 0 mm 1 mps 743 mmHg 34%
    09:00 +25°C° 0 mm 1 mps 743 mmHg 29%
    10:00 +26°C° 0 mm 1 mps 743 mmHg 25%
    11:00 +28°C° 0 mm 1 mps 744 mmHg 20%
    12:00 +29°C° 0 mm 1 mps 743 mmHg 20%
    13:00 +30°C° 0 mm 1 mps 742 mmHg 19%
    14:00 +31°C° 0 mm 1 mps 742 mmHg 18%
    15:00 +30°C° 0 mm 1 mps 742 mmHg 19%
    16:00 +30°C° 0 mm 2 mps 742 mmHg 19%
    17:00 +30°C° 0 mm 2 mps 742 mmHg 20%
    18:00 +29°C° 0 mm 2 mps 742 mmHg 22%
    19:00 +27°C° 0 mm 2 mps 742 mmHg 24%
    20:00 +26°C° 0 mm 2 mps 742 mmHg 26%
    21:00 +26°C° 0 mm 2 mps 742 mmHg 27%
    22:00 +25°C° 0 mm 2 mps 743 mmHg 28%
    23:00 +25°C° 0 mm 2 mps 743 mmHg 29%

    22 February, Saturday

    Time Temperature Precipitation Wind Pressure Humidity
    00:00 +25°C° 0 mm 1 mps 742 mmHg 30%
    01:00 +24°C° 0 mm 1 mps 742 mmHg 31%
    02:00 +24°C° 0 mm 1 mps 741 mmHg 32%
    03:00 +24°C° 0 mm 1 mps 741 mmHg 33%
    04:00 +22°C° 0 mm 0 mps 741 mmHg 34%
    05:00 +21°C° 0 mm 0 mps 741 mmHg 35%
    06:00 +24°C° 0 mm 1 mps 742 mmHg 35%
    07:00 +24°C° 0 mm 1 mps 742 mmHg 34%
    08:00 +25°C° 0 mm 1 mps 742 mmHg 34%
    09:00 +25°C° 0 mm 2 mps 743 mmHg 33%
    10:00 +25°C° 0 mm 3 mps 743 mmHg 32%
    11:00 +25°C° 0 mm 4 mps 743 mmHg 31%
    12:00 +25°C° 0 mm 5 mps 743 mmHg 29%
    13:00 +26°C° 0 mm 5 mps 743 mmHg 27%
    14:00 +27°C° 0 mm 6 mps 742 mmHg 25%
    15:00 +26°C° 0 mm 6 mps 742 mmHg 27%
    16:00 +24°C° 0 mm 6 mps 742 mmHg 29%
    17:00 +23°C° 0 mm 6 mps 742 mmHg 31%
    18:00 +22°C° 0 mm 5 mps 743 mmHg 31%
    19:00 +21°C° 0 mm 5 mps 743 mmHg 32%
    20:00 +19°C° 0 mm 4 mps 744 mmHg 32%
    21:00 +19°C° 0 mm 4 mps 744 mmHg 33%
    22:00 +18°C° 0 mm 3 mps 744 mmHg 34%
    23:00 +18°C° 0 mm 3 mps 745 mmHg 35%

    23 February, Sunday

    Time Temperature Precipitation Wind Pressure Humidity
    00:00 +17°C° 0 mm 3 mps 745 mmHg 36%
    01:00 +16°C° 0 mm 3 mps 744 mmHg 37%
    02:00 +16°C° 0 mm 3 mps 744 mmHg 38%
    03:00 +15°C° 0 mm 2 mps 744 mmHg 40%
    04:00 +15°C° 0 mm 2 mps 744 mmHg 42%
    05:00 +14°C° 0 mm 2 mps 745 mmHg 45%
    06:00 +15°C° 0 mm 2 mps 745 mmHg 43%
    07:00 +15°C° 0 mm 2 mps 745 mmHg 42%
    08:00 +15°C° 0 mm 2 mps 745 mmHg 41%
    09:00 +17°C° 0 mm 3 mps 746 mmHg 34%
    10:00 +19°C° 0 mm 3 mps 746 mmHg 28%
    11:00 +21°C° 0 mm 4 mps 746 mmHg 21%
    12:00 +23°C° 0 mm 4 mps 745 mmHg 20%
    13:00 +25°C° 0 mm 4 mps 745 mmHg 18%
    14:00 +26°C° 0 mm 5 mps 744 mmHg 17%
    15:00 +26°C° 0 mm 5 mps 744 mmHg 18%
    16:00 +26°C° 0 mm 5 mps 743 mmHg 19%
    17:00 +27°C° 0 mm 5 mps 743 mmHg 19%
    18:00 +25°C° 0 mm 5 mps 743 mmHg 22%
    19:00 +23°C° 0 mm 4 mps 743 mmHg 25%
    20:00 +21°C° 0 mm 4 mps 744 mmHg 28%
    21:00 +20°C° 0 mm 3 mps 744 mmHg 31%
    22:00 +19°C° 0 mm 3 mps 743 mmHg 33%
    23:00 +19°C° 0 mm 3 mps 743 mmHg 36%

    24 February, Monday

    Time Temperature Precipitation Wind Pressure Humidity
    00:00 +18°C° 0 mm 3 mps 743 mmHg 38%
    01:00 +17°C° 0 mm 2 mps 743 mmHg 40%
    02:00 +17°C° 0 mm 2 mps 742 mmHg 42%
    03:00 +16°C° 0 mm 2 mps 742 mmHg 43%
    04:00 +16°C° 0 mm 2 mps 742 mmHg 44%
    05:00 +15°C° 0 mm 1 mps 741 mmHg 45%
    06:00 +16°C° 0 mm 1 mps 742 mmHg 45%
    07:00 +16°C° 0 mm 1 mps 742 mmHg 44%
    08:00 +18°C° 0 mm 1 mps 742 mmHg 43%
    09:00 +20°C° 0 mm 1 mps 742 mmHg 37%
    10:00 +22°C° 0 mm 1 mps 741 mmHg 32%
    11:00 +23°C° 0 mm 1 mps 741 mmHg 26%
    12:00 +25°C° 0 mm 2 mps 740 mmHg 23%
    13:00 +26°C° 0 mm 3 mps 740 mmHg 20%
    14:00 +27°C° 0 mm 4 mps 739 mmHg 18%
    15:00 +27°C° 0 mm 4 mps 738 mmHg 17%
    16:00 +27°C° 0 mm 5 mps 738 mmHg 16%
    17:00 +27°C° 0 mm 5 mps 737 mmHg 15%
    18:00 +25°C° 0 mm 5 mps 738 mmHg 20%
    19:00 +22°C° 0 mm 4 mps 738 mmHg 26%
    20:00 +20°C° 0 mm 4 mps 738 mmHg 31%
    21:00 +19°C° 0 mm 3 mps 738 mmHg 32%
    22:00 +19°C° 0 mm 2 mps 738 mmHg 33%
    23:00 +18°C° 0 mm 2 mps 738 mmHg 34%
    Show more